PGT1235 LTFJ-LIPZ

Flight info

Callsign PGT1235
Flight time N/A
Altitude 34000
Route VADEN DCT BAKLO N618 GOL DCT DOLAP DCT OBLAK DCT NANER DCT KOSIV DCT VEBAR DCT ETOBI DCT OBALA DCT NAKIT DCT LABIN Z122 BASOG
Aircraft B738/M-SDE2E3FGHIRWXY/LB1

Departure

Time 2026-04-28 07:48
Airport Istanbul Sabiha Gökçen International Airport (LTFJ)

Arrival

Time N/A
Airport Venice Marco Polo Airport (LIPZ)
Time Latitude Longitude Altitude Speed Heading
2026-04-28 07:26 40.90595 29.31563 320 ft 0 kts 333°
2026-04-28 07:39 40.90587 29.31568 320 ft 4 kts 333°
2026-04-28 07:39 40.90563 29.31584 318 ft 4 kts 331°
2026-04-28 07:39 40.90540 29.31603 319 ft 4 kts 321°
2026-04-28 07:40 40.90524 29.31627 317 ft 4 kts 276°
2026-04-28 07:40 40.90524 29.31639 318 ft 0 kts 243°
2026-04-28 07:42 40.90520 29.31628 317 ft 6 kts 243°
2026-04-28 07:42 40.90479 29.31517 320 ft 17 kts 244°
2026-04-28 07:43 40.90417 29.31437 320 ft 12 kts 166°
2026-04-28 07:43 40.90344 29.31482 320 ft 12 kts 153°
2026-04-28 07:43 40.90263 29.31458 319 ft 16 kts 239°
2026-04-28 07:43 40.90208 29.31307 320 ft 20 kts 244°
2026-04-28 07:44 40.90144 29.31133 320 ft 21 kts 244°
2026-04-28 07:44 40.90080 29.30961 318 ft 20 kts 244°
2026-04-28 07:44 40.90019 29.30794 319 ft 20 kts 244°
2026-04-28 07:44 40.89960 29.30632 320 ft 19 kts 244°
2026-04-28 07:45 40.89902 29.30475 319 ft 19 kts 244°
2026-04-28 07:45 40.89846 29.30323 318 ft 18 kts 244°
2026-04-28 07:45 40.89793 29.30179 320 ft 17 kts 244°
2026-04-28 07:45 40.89737 29.30026 320 ft 21 kts 244°
2026-04-28 07:46 40.89666 29.29835 320 ft 25 kts 244°
2026-04-28 07:46 40.89589 29.29625 318 ft 25 kts 244°
2026-04-28 07:46 40.89516 29.29427 319 ft 23 kts 244°
2026-04-28 07:46 40.89439 29.29264 320 ft 17 kts 206°
2026-04-28 07:47 40.89329 29.29292 319 ft 16 kts 154°
2026-04-28 07:47 40.89298 29.29408 319 ft 15 kts 60°
2026-04-28 07:47 40.89355 29.29561 321 ft 34 kts 64°
2026-04-28 07:47 40.89568 29.30139 320 ft 103 kts 64°
2026-04-28 07:48 40.89970 29.31232 363 ft 155 kts 65°
2026-04-28 07:48 40.90444 29.32545 993 ft 163 kts 64°
2026-04-28 07:48 40.90933 29.33893 1836 ft 165 kts 64°
2026-04-28 07:48 40.91467 29.35324 2415 ft 185 kts 64°
2026-04-28 07:49 40.92087 29.36943 2680 ft 209 kts 64°
2026-04-28 07:49 40.92754 29.38760 3059 ft 226 kts 64°
2026-04-28 07:49 40.93462 29.40704 3495 ft 244 kts 64°
2026-04-28 07:49 40.94217 29.42772 4160 ft 254 kts 63°
2026-04-28 07:50 40.94999 29.44910 4930 ft 260 kts 63°
2026-04-28 07:50 40.95789 29.47067 5658 ft 267 kts 63°
2026-04-28 07:50 40.96609 29.49308 6387 ft 273 kts 63°
2026-04-28 07:50 40.97447 29.51601 6853 ft 277 kts 63°
2026-04-28 07:51 40.98290 29.53907 7008 ft 281 kts 63°
2026-04-28 07:51 40.99150 29.56261 7000 ft 283 kts 64°
2026-04-28 07:51 41.00018 29.58563 6995 ft 281 kts 57°
2026-04-28 07:51 41.01367 29.60373 7006 ft 276 kts 28°
2026-04-28 07:52 41.03179 29.61131 7082 ft 276 kts
2026-04-28 07:52 41.05088 29.60899 7704 ft 277 kts 345°
2026-04-28 07:52 41.06936 29.60225 8619 ft 274 kts 342°
2026-04-28 07:52 41.08770 29.59469 9403 ft 277 kts 336°
2026-04-28 07:53 41.09841 29.58568 9922 ft 275 kts 313°
2026-04-28 07:53 41.10894 29.56454 10539 ft 283 kts 298°
2026-04-28 07:53 41.11842 29.54037 10699 ft 306 kts 297°
2026-04-28 07:53 41.12834 29.51416 10857 ft 329 kts 297°
2026-04-28 07:54 41.13868 29.48656 11373 ft 338 kts 296°
2026-04-28 07:54 41.14930 29.45814 11891 ft 346 kts 296°
2026-04-28 07:54 41.15994 29.42979 12645 ft 346 kts 296°
2026-04-28 07:54 41.17074 29.40106 13410 ft 348 kts 296°
2026-04-28 07:55 41.18167 29.37195 13989 ft 355 kts 296°
2026-04-28 07:55 41.19270 29.34260 14676 ft 356 kts 297°
2026-04-28 07:55 41.20388 29.31283 15184 ft 363 kts 297°
2026-04-28 07:55 41.21524 29.28264 15781 ft 366 kts 297°
2026-04-28 07:56 41.22659 29.25243 16554 ft 365 kts 297°
2026-04-28 07:56 41.23795 29.22215 17142 ft 368 kts 297°
2026-04-28 07:56 41.24949 29.19137 17632 ft 375 kts 297°
2026-04-28 07:56 41.26112 29.16035 18328 ft 375 kts 296°
2026-04-28 07:57 41.27265 29.12954 18906 ft 375 kts 296°
2026-04-28 07:57 41.28431 29.09833 19427 ft 378 kts 296°
2026-04-28 07:57 41.29609 29.06678 19892 ft 382 kts 296°
2026-04-28 07:57 41.30798 29.03491 20389 ft 385 kts 296°
2026-04-28 07:58 41.31993 29.00283 20905 ft 387 kts 296°
2026-04-28 07:58 41.33178 28.97100 21422 ft 389 kts 296°
2026-04-28 07:58 41.34381 28.93865 21924 ft 391 kts 296°
2026-04-28 07:58 41.35594 28.90598 22415 ft 394 kts 296°
2026-04-28 07:59 41.36808 28.87324 22900 ft 396 kts 296°
2026-04-28 07:59 41.38030 28.84026 23376 ft 398 kts 296°
2026-04-28 07:59 41.39259 28.80705 23830 ft 400 kts 296°
2026-04-28 07:59 41.40496 28.77359 24179 ft 403 kts 296°
2026-04-28 08:00 41.41738 28.73995 24526 ft 406 kts 296°
2026-04-28 08:00 41.42983 28.70616 24897 ft 408 kts 296°
2026-04-28 08:00 41.44239 28.67207 25267 ft 410 kts 296°
2026-04-28 08:00 41.45481 28.63833 25609 ft 412 kts 296°
2026-04-28 08:01 41.46751 28.60377 25950 ft 414 kts 296°
2026-04-28 08:01 41.48020 28.56919 26271 ft 417 kts 296°
2026-04-28 08:01 41.49298 28.53434 26591 ft 419 kts 297°
2026-04-28 08:01 41.50586 28.49915 26839 ft 424 kts 297°
2026-04-28 08:02 41.51889 28.46352 27116 ft 427 kts 297°
2026-04-28 08:02 41.53175 28.42833 27464 ft 428 kts 297°
2026-04-28 08:02 41.54484 28.39244 27804 ft 429 kts 297°
2026-04-28 08:02 41.55791 28.35654 28105 ft 431 kts 297°
2026-04-28 08:03 41.57107 28.32038 28394 ft 434 kts 297°
2026-04-28 08:03 41.58429 28.28401 28684 ft 436 kts 297°
2026-04-28 08:03 41.59755 28.24746 28966 ft 438 kts 298°
2026-04-28 08:03 41.61089 28.21065 29243 ft 439 kts 298°
2026-04-28 08:04 41.62403 28.17434 29616 ft 439 kts 298°
2026-04-28 08:04 41.63729 28.13764 30085 ft 436 kts 298°
2026-04-28 08:04 41.65045 28.10118 30490 ft 434 kts 298°
2026-04-28 08:04 41.66359 28.06475 30816 ft 433 kts 298°
2026-04-28 08:05 41.67681 28.02862 31116 ft 432 kts 300°
2026-04-28 08:05 41.69209 27.99420 31447 ft 430 kts 304°
2026-04-28 08:05 41.70837 27.96070 31798 ft 428 kts 305°
2026-04-28 08:05 41.72482 27.92756 32111 ft 427 kts 305°
2026-04-28 08:06 41.74102 27.89494 32405 ft 426 kts 305°
2026-04-28 08:06 41.75731 27.86182 32727 ft 425 kts 304°
2026-04-28 08:06 41.77343 27.82875 33050 ft 424 kts 304°
2026-04-28 08:06 41.78947 27.79562 33345 ft 423 kts 304°
2026-04-28 08:07 41.80543 27.76250 33608 ft 423 kts 304°
2026-04-28 08:07 41.82134 27.72936 33917 ft 422 kts 304°
2026-04-28 08:07 41.83715 27.69639 34183 ft 421 kts 304°
2026-04-28 08:07 41.85308 27.66314 34152 ft 424 kts 304°
2026-04-28 08:08 41.88499 27.59641 34164 ft 422 kts 304°
2026-04-28 08:08 41.91645 27.53049 34154 ft 418 kts 304°
2026-04-28 08:09 41.94767 27.46495 34149 ft 416 kts 304°
2026-04-28 08:09 41.97859 27.39988 34157 ft 415 kts 304°
2026-04-28 08:10 42.00959 27.33452 34166 ft 414 kts 304°
2026-04-28 08:10 42.04061 27.26899 34158 ft 415 kts 304°
2026-04-28 08:11 42.07256 27.20415 34142 ft 415 kts 310°
2026-04-28 08:11 42.11069 27.14658 34154 ft 415 kts 313°
2026-04-28 08:12 42.14975 27.08911 34163 ft 416 kts 313°
2026-04-28 08:12 42.18748 27.03285 34156 ft 418 kts 313°
2026-04-28 08:13 42.22630 26.97438 34148 ft 418 kts 313°
2026-04-28 08:13 42.26510 26.91569 34157 ft 419 kts 312°
2026-04-28 08:14 42.30392 26.85683 34158 ft 419 kts 312°
2026-04-28 08:14 42.34245 26.79833 34171 ft 419 kts 312°
2026-04-28 08:15 42.38114 26.73947 34153 ft 418 kts 312°
2026-04-28 08:15 42.41971 26.68066 34173 ft 417 kts 312°
2026-04-28 08:16 42.45819 26.62188 34177 ft 416 kts 312°
2026-04-28 08:16 42.49653 26.56321 34176 ft 416 kts 312°
2026-04-28 08:17 42.53375 26.50312 34169 ft 416 kts 304°
2026-04-28 08:17 42.55892 26.43257 34185 ft 417 kts 291°
2026-04-28 08:18 42.57742 26.35839 34184 ft 416 kts 290°
2026-04-28 08:18 42.59593 26.28373 34176 ft 416 kts 290°
2026-04-28 08:19 42.61445 26.20976 34156 ft 416 kts 290°
2026-04-28 08:19 42.63316 26.13532 34146 ft 416 kts 290°
2026-04-28 08:20 42.65185 26.06084 34147 ft 416 kts 290°
2026-04-28 08:20 42.67051 25.98630 34142 ft 416 kts 290°
2026-04-28 08:21 42.68899 25.91221 34146 ft 416 kts 290°
2026-04-28 08:21 42.70750 25.83774 34140 ft 415 kts 290°
2026-04-28 08:22 42.72593 25.76331 34132 ft 414 kts 290°
2026-04-28 08:22 42.74427 25.68909 34133 ft 414 kts 290°
2026-04-28 08:23 42.76246 25.61526 34142 ft 413 kts 290°
2026-04-28 08:23 42.78069 25.54095 34135 ft 413 kts 290°
2026-04-28 08:24 42.79885 25.46673 34131 ft 413 kts 290°
2026-04-28 08:24 42.81696 25.39243 34136 ft 412 kts 290°
2026-04-28 08:25 42.83489 25.31867 34131 ft 412 kts 290°
2026-04-28 08:26 42.86183 25.20743 34136 ft 411 kts 290°
2026-04-28 08:26 42.87973 25.13316 34129 ft 412 kts 290°
2026-04-28 08:27 42.89758 25.05889 34129 ft 412 kts 290°
2026-04-28 08:27 42.91527 24.98504 34127 ft 412 kts 290°
2026-04-28 08:28 42.93302 24.91068 34125 ft 412 kts 290°
2026-04-28 08:28 42.95073 24.83624 34132 ft 412 kts 290°
2026-04-28 08:29 42.96841 24.76170 34127 ft 412 kts 290°
2026-04-28 08:29 42.98603 24.68717 34123 ft 412 kts 290°
2026-04-28 08:30 43.00358 24.61268 34123 ft 411 kts 290°
2026-04-28 08:30 43.02096 24.53865 34125 ft 411 kts 290°
2026-04-28 08:31 43.03842 24.46409 34123 ft 411 kts 290°
2026-04-28 08:31 43.05579 24.38961 34130 ft 410 kts 290°
2026-04-28 08:32 43.07308 24.31522 34132 ft 410 kts 290°
2026-04-28 08:32 43.09033 24.24082 34132 ft 410 kts 290°
2026-04-28 08:33 43.10653 24.16640 34131 ft 411 kts 288°
2026-04-28 08:33 43.12126 24.09078 34136 ft 410 kts 287°
2026-04-28 08:34 43.13589 24.01520 34132 ft 410 kts 287°
2026-04-28 08:34 43.15058 23.94002 34137 ft 410 kts 288°
2026-04-28 08:35 43.16537 23.86456 34131 ft 410 kts 288°
2026-04-28 08:35 43.18014 23.78903 34126 ft 410 kts 288°
2026-04-28 08:36 43.19474 23.71407 34141 ft 409 kts 288°
2026-04-28 08:36 43.20940 23.63855 34135 ft 409 kts 288°
2026-04-28 08:37 43.22399 23.56304 34141 ft 409 kts 288°
2026-04-28 08:37 43.23855 23.48743 34135 ft 410 kts 288°
2026-04-28 08:38 43.25298 23.41222 34117 ft 410 kts 288°
2026-04-28 08:38 43.26741 23.33663 34143 ft 409 kts 288°
2026-04-28 08:39 43.28183 23.26087 34130 ft 409 kts 288°
2026-04-28 08:39 43.29610 23.18558 34134 ft 409 kts 288°
2026-04-28 08:40 43.31038 23.10994 34140 ft 409 kts 287°
2026-04-28 08:40 43.32460 23.03431 34126 ft 409 kts 287°
2026-04-28 08:41 43.33637 22.97151 34134 ft 408 kts 287°
2026-04-28 08:41 43.35272 22.88391 34120 ft 407 kts 287°
2026-04-28 08:42 43.36435 22.82137 34132 ft 407 kts 287°
2026-04-28 08:42 43.37945 22.74639 34131 ft 406 kts 292°
2026-04-28 08:43 43.39985 22.67408 34135 ft 406 kts 294°
2026-04-28 08:43 43.42068 22.60166 34126 ft 406 kts 293°
2026-04-28 08:44 43.44107 22.52909 34125 ft 406 kts 293°
2026-04-28 08:44 43.46124 22.45644 34137 ft 406 kts 293°
2026-04-28 08:45 43.48124 22.38424 34133 ft 406 kts 293°
2026-04-28 08:45 43.49993 22.31085 34137 ft 407 kts 290°
2026-04-28 08:46 43.51683 22.23642 34130 ft 407 kts 289°
2026-04-28 08:46 43.53362 22.16195 34146 ft 407 kts 289°
2026-04-28 08:47 43.55055 22.08745 34145 ft 406 kts 289°
2026-04-28 08:47 43.56753 22.01304 34140 ft 407 kts 290°
2026-04-28 08:48 43.58436 21.93909 34135 ft 407 kts 289°
2026-04-28 08:48 43.60125 21.86469 34136 ft 406 kts 289°
2026-04-28 08:49 43.61811 21.79018 34135 ft 407 kts 289°
2026-04-28 08:49 43.63489 21.71572 34143 ft 407 kts 289°
2026-04-28 08:50 43.65167 21.64102 34128 ft 407 kts 289°
2026-04-28 08:50 43.66841 21.56622 34138 ft 407 kts 289°
2026-04-28 08:51 43.68498 21.49196 34142 ft 407 kts 289°
2026-04-28 08:51 43.70163 21.41704 34141 ft 407 kts 289°
2026-04-28 08:52 43.71822 21.34214 34143 ft 407 kts 289°
2026-04-28 08:52 43.73477 21.26717 34139 ft 407 kts 289°
2026-04-28 08:53 43.75126 21.19223 34152 ft 407 kts 289°
2026-04-28 08:53 43.76771 21.11716 34140 ft 408 kts 289°
2026-04-28 08:54 43.78405 21.04237 34140 ft 408 kts 289°
2026-04-28 08:54 43.80045 20.96700 34142 ft 408 kts 288°
2026-04-28 08:55 43.81681 20.89160 34138 ft 409 kts 288°
2026-04-28 08:55 43.83302 20.81658 34142 ft 409 kts 288°
2026-04-28 08:56 43.84925 20.74117 34134 ft 408 kts 288°
2026-04-28 08:56 43.86547 20.66558 34137 ft 408 kts 288°
2026-04-28 08:57 43.88150 20.59058 34155 ft 408 kts 288°
2026-04-28 08:57 43.89759 20.51511 34167 ft 407 kts 288°
2026-04-28 08:58 43.91339 20.43964 34161 ft 407 kts 287°
2026-04-28 08:58 43.92736 20.36346 34148 ft 407 kts 285°
2026-04-28 08:59 43.94084 20.28786 34134 ft 406 kts 286°
2026-04-28 08:59 43.95451 20.21195 34136 ft 405 kts 286°
2026-04-28 09:00 43.96824 20.13607 34133 ft 405 kts 286°
2026-04-28 09:00 43.98196 20.06010 34135 ft 405 kts 286°
2026-04-28 09:01 43.99553 19.98459 34128 ft 405 kts 286°
2026-04-28 09:01 44.00911 19.90873 34121 ft 405 kts 286°
2026-04-28 09:02 44.02267 19.83278 34120 ft 405 kts 285°
2026-04-28 09:02 44.03617 19.75666 34125 ft 406 kts 285°
2026-04-28 09:03 44.04969 19.68017 34135 ft 407 kts 285°
2026-04-28 09:03 44.06320 19.60347 34119 ft 409 kts 285°
2026-04-28 09:04 44.07660 19.52701 34120 ft 411 kts 285°
2026-04-28 09:04 44.09008 19.44980 34131 ft 411 kts 285°
2026-04-28 09:05 44.10354 19.37232 34131 ft 411 kts 285°
2026-04-28 09:05 44.11695 19.29484 34125 ft 412 kts 285°
2026-04-28 09:06 44.13034 19.21720 34113 ft 412 kts 285°
2026-04-28 09:06 44.14426 19.13994 34120 ft 410 kts 287°
2026-04-28 09:07 44.16046 19.06383 34131 ft 409 kts 288°
2026-04-28 09:07 44.17685 18.98802 34114 ft 408 kts 288°
2026-04-28 09:08 44.19289 18.91239 34126 ft 406 kts 288°
2026-04-28 09:08 44.20856 18.83743 34116 ft 405 kts 287°
2026-04-28 09:09 44.22418 18.76220 34121 ft 403 kts 287°
2026-04-28 09:09 44.23970 18.68710 34114 ft 402 kts 287°
2026-04-28 09:10 44.25517 18.61201 34111 ft 402 kts 287°
2026-04-28 09:10 44.27054 18.53712 34113 ft 401 kts 287°
2026-04-28 09:11 44.28589 18.46209 34125 ft 402 kts 287°
2026-04-28 09:11 44.30110 18.38742 34129 ft 403 kts 287°
2026-04-28 09:12 44.31640 18.31201 34129 ft 403 kts 287°
2026-04-28 09:12 44.33172 18.23632 34114 ft 405 kts 287°
2026-04-28 09:13 44.34700 18.16045 34116 ft 406 kts 287°
2026-04-28 09:13 44.36224 18.08450 34116 ft 406 kts 287°
2026-04-28 09:14 44.37747 18.00829 34119 ft 407 kts 287°
2026-04-28 09:14 44.39253 17.93264 34119 ft 406 kts 287°
2026-04-28 09:15 44.40766 17.85640 34110 ft 406 kts 286°
2026-04-28 09:15 44.42273 17.78016 34116 ft 406 kts 286°
2026-04-28 09:16 44.43771 17.70405 34121 ft 405 kts 286°
2026-04-28 09:16 44.45260 17.62807 34126 ft 404 kts 286°
2026-04-28 09:17 44.46736 17.55256 34118 ft 404 kts 286°
2026-04-28 09:17 44.48217 17.47644 34111 ft 404 kts 286°
2026-04-28 09:18 44.49691 17.40036 34107 ft 404 kts 286°
2026-04-28 09:18 44.51157 17.32440 34111 ft 404 kts 286°
2026-04-28 09:19 44.52621 17.24825 34115 ft 404 kts 286°
2026-04-28 09:19 44.54080 17.17210 34116 ft 405 kts 285°
2026-04-28 09:20 44.55535 17.09578 34104 ft 404 kts 285°
2026-04-28 09:20 44.56974 17.02007 34109 ft 404 kts 285°
2026-04-28 09:21 44.58419 16.94372 34115 ft 405 kts 285°
2026-04-28 09:21 44.59838 16.86716 34112 ft 405 kts 285°
2026-04-28 09:22 44.61209 16.79019 34102 ft 406 kts 284°
2026-04-28 09:22 44.62571 16.71321 34116 ft 406 kts 284°
2026-04-28 09:23 44.63921 16.63689 34104 ft 406 kts 284°
2026-04-28 09:23 44.65280 16.55986 34110 ft 406 kts 284°
2026-04-28 09:24 44.66638 16.48267 34112 ft 406 kts 284°
2026-04-28 09:24 44.67987 16.40562 34110 ft 406 kts 284°
2026-04-28 09:25 44.69330 16.32861 34106 ft 406 kts 284°
2026-04-28 09:25 44.70670 16.25139 34110 ft 406 kts 284°
2026-04-28 09:26 44.71995 16.17473 34101 ft 406 kts 284°
2026-04-28 09:26 44.73322 16.09765 34095 ft 406 kts 284°
2026-04-28 09:27 44.75302 15.98195 34110 ft 405 kts 284°
2026-04-28 09:27 44.76616 15.90475 34107 ft 405 kts 284°
2026-04-28 09:28 44.77924 15.82757 34101 ft 405 kts 284°
2026-04-28 09:28 44.79007 15.76335 34107 ft 404 kts 284°
2026-04-28 09:29 44.80302 15.68628 34106 ft 405 kts 284°
2026-04-28 09:29 44.81804 15.59658 34102 ft 405 kts 284°
2026-04-28 09:30 44.82881 15.53187 34095 ft 405 kts 284°
2026-04-28 09:30 44.84163 15.45458 34096 ft 405 kts 284°
2026-04-28 09:31 44.85440 15.37722 34091 ft 405 kts 283°
2026-04-28 09:31 44.86704 15.30032 34093 ft 405 kts 283°
2026-04-28 09:32 44.87973 15.22278 34093 ft 405 kts 283°
2026-04-28 09:32 44.89235 15.14531 34092 ft 406 kts 283°
2026-04-28 09:33 44.90491 15.06780 34085 ft 405 kts 283°
2026-04-28 09:33 44.91742 14.99035 34090 ft 405 kts 283°
2026-04-28 09:34 44.93064 14.91305 34086 ft 405 kts 285°
2026-04-28 09:34 44.94489 14.83596 34087 ft 405 kts 285°
2026-04-28 09:35 44.95202 14.79738 33958 ft 409 kts 285°
2026-04-28 09:35 44.95921 14.75820 33671 ft 415 kts 285°
2026-04-28 09:35 44.96643 14.71859 33407 ft 416 kts 285°
2026-04-28 09:35 44.97357 14.67914 33132 ft 414 kts 284°
2026-04-28 09:36 44.98060 14.64018 32853 ft 414 kts 284°
2026-04-28 09:36 44.98769 14.60068 32592 ft 414 kts 284°
2026-04-28 09:36 44.99476 14.56126 32328 ft 415 kts 284°
2026-04-28 09:36 45.00183 14.52170 32076 ft 415 kts 284°
2026-04-28 09:37 45.00890 14.48208 31816 ft 415 kts 284°
2026-04-28 09:37 45.01595 14.44249 31564 ft 416 kts 284°
2026-04-28 09:37 45.02300 14.40283 31316 ft 416 kts 284°
2026-04-28 09:37 45.03003 14.36316 31065 ft 416 kts 284°
2026-04-28 09:38 45.03705 14.32350 30813 ft 415 kts 284°
2026-04-28 09:38 45.04403 14.28394 30569 ft 414 kts 284°
2026-04-28 09:38 45.05100 14.24436 30326 ft 413 kts 284°
2026-04-28 09:38 45.05783 14.20553 30073 ft 411 kts 284°
2026-04-28 09:39 45.06470 14.16633 29780 ft 410 kts 284°
2026-04-28 09:39 45.07152 14.12736 29492 ft 407 kts 284°
2026-04-28 09:39 45.07829 14.08859 29230 ft 405 kts 284°
2026-04-28 09:39 45.08502 14.04994 28944 ft 403 kts 284°
2026-04-28 09:40 45.09170 14.01155 28667 ft 400 kts 284°
2026-04-28 09:40 45.09832 13.97341 28394 ft 398 kts 284°
2026-04-28 09:40 45.10489 13.93543 28118 ft 395 kts 284°
2026-04-28 09:40 45.11136 13.89797 27701 ft 390 kts 284°
2026-04-28 09:41 45.11776 13.86084 27269 ft 385 kts 283°
2026-04-28 09:41 45.12406 13.82421 26814 ft 382 kts 283°
2026-04-28 09:41 45.13030 13.78788 26365 ft 378 kts 283°
2026-04-28 09:41 45.13647 13.75187 25933 ft 375 kts 283°
2026-04-28 09:42 45.14258 13.71609 25516 ft 372 kts 283°
2026-04-28 09:42 45.14864 13.68063 25085 ft 369 kts 283°
2026-04-28 09:42 45.15463 13.64544 24657 ft 366 kts 283°
2026-04-28 09:42 45.16058 13.61040 24235 ft 364 kts 283°
2026-04-28 09:43 45.16641 13.57609 23825 ft 362 kts 283°
2026-04-28 09:43 45.17226 13.54154 23360 ft 359 kts 283°
2026-04-28 09:43 45.17805 13.50726 22890 ft 357 kts 283°
2026-04-28 09:43 45.18139 13.47270 22447 ft 353 kts 267°
2026-04-28 09:44 45.17679 13.43885 22076 ft 350 kts 253°
2026-04-28 09:44 45.16611 13.40792 21632 ft 351 kts 238°
2026-04-28 09:44 45.15133 13.38038 21235 ft 349 kts 234°
2026-04-28 09:44 45.13600 13.35380 20828 ft 348 kts 233°
2026-04-28 09:45 45.12063 13.32744 20421 ft 345 kts 233°
2026-04-28 09:45 45.10542 13.30120 20029 ft 343 kts 233°
2026-04-28 09:45 45.09043 13.27509 19635 ft 342 kts 233°
2026-04-28 09:45 45.07550 13.24894 19243 ft 340 kts 233°
2026-04-28 09:46 45.06072 13.22295 18854 ft 338 kts 233°
2026-04-28 09:46 45.04600 13.19705 18471 ft 337 kts 233°
2026-04-28 09:46 45.03133 13.17124 18039 ft 336 kts 233°
2026-04-28 09:46 45.01689 13.14589 17622 ft 334 kts 233°
2026-04-28 09:47 45.00280 13.11995 17202 ft 331 kts 240°
2026-04-28 09:47 44.99511 13.08984 16855 ft 325 kts 262°
2026-04-28 09:47 44.99479 13.05799 16375 ft 326 kts 279°
2026-04-28 09:47 45.00072 13.02725 16013 ft 324 kts 288°
2026-04-28 09:48 45.00813 12.99715 15616 ft 324 kts 289°
2026-04-28 09:48 45.01580 12.96726 15230 ft 323 kts 289°
2026-04-28 09:48 45.02342 12.93752 14849 ft 322 kts 289°
2026-04-28 09:48 45.03098 12.90771 14476 ft 323 kts 289°
2026-04-28 09:49 45.03855 12.87754 14100 ft 326 kts 289°
2026-04-28 09:49 45.04613 12.84705 13687 ft 332 kts 289°
2026-04-28 09:49 45.05378 12.81608 13270 ft 336 kts 289°
2026-04-28 09:49 45.06148 12.78482 12848 ft 335 kts 289°
2026-04-28 09:50 45.06909 12.75378 12449 ft 333 kts 288°
2026-04-28 09:50 45.07664 12.72294 12054 ft 330 kts 288°
2026-04-28 09:50 45.08413 12.69233 11666 ft 328 kts 288°
2026-04-28 09:50 45.09155 12.66193 11289 ft 326 kts 288°
2026-04-28 09:51 45.09890 12.63176 10902 ft 323 kts 288°
2026-04-28 09:51 45.10611 12.60212 10560 ft 321 kts 288°
2026-04-28 09:51 45.11325 12.57278 10440 ft 311 kts 288°
2026-04-28 09:51 45.12019 12.54421 10286 ft 302 kts 288°
2026-04-28 09:52 45.12690 12.51652 10157 ft 293 kts 288°
2026-04-28 09:52 45.13346 12.48953 9987 ft 287 kts 289°
2026-04-28 09:52 45.14031 12.46299 9668 ft 285 kts 290°
2026-04-28 09:52 45.14727 12.43675 9385 ft 283 kts 290°
2026-04-28 09:53 45.15416 12.41077 9100 ft 281 kts 290°
2026-04-28 09:53 45.16088 12.38537 8785 ft 279 kts 289°
2026-04-28 09:53 45.16767 12.35958 8458 ft 279 kts 290°
2026-04-28 09:53 45.17444 12.33384 8145 ft 278 kts 289°
2026-04-28 09:54 45.18114 12.30826 7874 ft 275 kts 289°
2026-04-28 09:54 45.18776 12.28293 7600 ft 273 kts 289°
2026-04-28 09:54 45.19452 12.25757 7218 ft 276 kts 293°
2026-04-28 09:54 45.20376 12.23369 6909 ft 276 kts 301°
2026-04-28 09:55 45.21389 12.21108 6652 ft 274 kts 302°
2026-04-28 09:55 45.22403 12.18824 6407 ft 271 kts 301°
2026-04-28 09:55 45.23378 12.16578 6317 ft 263 kts 301°
2026-04-28 09:55 45.24316 12.14388 6203 ft 255 kts 300°
2026-04-28 09:56 45.25217 12.12273 6138 ft 246 kts 300°
2026-04-28 09:56 45.26105 12.10241 6059 ft 237 kts 306°
2026-04-28 09:56 45.27295 12.08883 5891 ft 235 kts 339°
2026-04-28 09:57 45.28791 12.08601 5637 ft 235 kts
2026-04-28 09:57 45.30320 12.09392 5354 ft 235 kts 34°
2026-04-28 09:57 45.31583 12.10860 5126 ft 233 kts 41°
2026-04-28 09:57 45.32815 12.12355 4889 ft 231 kts 41°
2026-04-28 09:58 45.34001 12.13852 4796 ft 223 kts 43°
2026-04-28 09:58 45.35117 12.15290 4725 ft 209 kts 43°
2026-04-28 09:58 45.36154 12.16632 4615 ft 194 kts 43°
2026-04-28 09:58 45.37123 12.17887 4397 ft 185 kts 43°
2026-04-28 09:59 45.38059 12.19099 4022 ft 182 kts 44°
2026-04-28 09:59 45.38972 12.20279 3631 ft 174 kts 43°
2026-04-28 09:59 45.39861 12.21430 3241 ft 170 kts 43°
2026-04-28 09:59 45.40726 12.22547 3008 ft 167 kts 44°
2026-04-28 10:00 45.41591 12.23667 2844 ft 171 kts 43°
2026-04-28 10:00 45.42471 12.24805 2340 ft 170 kts 43°
2026-04-28 10:00 45.43346 12.25932 1858 ft 166 kts 43°
2026-04-28 10:00 45.44185 12.27016 1429 ft 171 kts 44°
2026-04-28 10:01 45.45033 12.28120 1177 ft 159 kts 43°